Starlink 1730

operational
NORAD ID: 46563 Int'l Des: 2020-070 Owner: SPXS Country: US Constellation: starlink
LEOCIRCULAR

About Starlink 1730

Description loading...

Live Position

Loading 3D Globe...

Upcoming Passes

Altitude History

Altitude vs Time

uPlot chart will show altitude changes over time

Two-Line Element Set

1 46563U 20070AH 26019.00003472 .00072573 00000-0 20764-2 0 9992
2 46563 53.0370 357.2216 0001984 86.7207 312.5119 15.35321087 5868
Epoch: Jan 19, 2026 • Age: 12 hours

Current Status

Altitude 460.4 km
Velocity 7.64 km/s
Sub-Earth Point 28.53°N, 72.55°E
Launch Date Oct 6, 2020
Age 5.2 years
Type internet

Technical Details

Classification Payload
Mass 260.00 kg
Dry Mass 248.00 kg
Total Mass 260.00 kg
Length 0.20 m
Diameter 2.80 m
Span 9.00 m
Shape Box + pan
Manufacturer SPXS
Bus Type Starlink
Phase Status In Orbit
Owner/State SPXS/US

Large Constellations

Loading constellations...